Willard, MO

6:18 PM CST on February 24, 2017 (GMT -0600)
Springfield-Branson Regional

Weather History for KSGF - July, 2012

Change the Weather History Date:

Friday, July 20, 2012

  Actual Average Record
Temperature  
Mean Temperature 86 °F 79 °F  
Max Temperature 99 °F 89 °F 103 °F (2006)
Min Temperature 72 °F 68 °F 49 °F (1970)
Degree Days  
Heating Degree Days 0 0  
Month to date heating degree days 0 0  
Since 1 June heating degree days 8 9  
Since 1 July heating degree days 0 0  
Cooling Degree Days 21 14  
Month to date cooling degree days 371 257  
Year to date cooling degree days 975 635  
Since 1 June cooling degree days 715 520  
Growing Degree Days 36 (Base 50)    
Moisture  
Dew Point 59 °F    
Average Humidity 47    
Maximum Humidity 73    
Minimum Humidity 21    
Precipitation  
Precipitation 0.00 in 0.12 in 2.18 in (1905)
Month to date precipitation 0.32 2.55  
Year to date precipitation 15.40 25.43  
Snow  
Snow 0.00 in - - ()
Month to date snowfall 0.0  
Since 1 June snowfall 0.0  
Since 1 July snowfall 0.0  
Snow Depth 0.00 in    
Sea Level Pressure  
Sea Level Pressure 29.96 in    
Wind  
Wind Speed 9 mph (NNE)    
Max Wind Speed 20 mph    
Max Gust Speed 24 mph    
Visibility 10 miles    
Events      
T = Trace of Precipitation, MM = Missing Value Source: NWS Daily Summary

Daily Weather History Graph

Daily Weather History Graph

Search for Another Location

Airport or City:

Trip Planner

Search our weather history database for the weather conditions in past years. The results will help you decide how hot, cold, wet, or windy it might be!

Date:

Astronomy

Jul. 20, 2012 Rise Set
Actual Time 6:09 AM CDT 8:30 PM CDT
Civil Twilight 5:39 AM CDT 9:00 PM CDT
Nautical Twilight 5:02 AM CDT 9:36 PM CDT
Astronomical Twilight 4:22 AM CDT 10:16 PM CDT
Moon 7:43 AM CDT (7/20) 9:14 PM CDT (7/20)
Length of Visible Light 15h 20m
Length of Day
14h 21m
Waxing Crescent, 3% of the Moon is Illuminated
Jul 20
Waxing Crescent
Jul 26
First Quarter
Aug 1
Full
Aug 9
Last Quarter
Aug 17
New

Hourly Weather History & Observations

Time (CDT) Temp. Heat Index Dew Point Humidity Pressure Visibility Wind Dir Wind Speed Gust Speed Precip Events Conditions
12:52 AM 78.1 °F - 66.0 °F 66% 29.94 in 10.0 mi Calm Calm - N/A   Mostly Cloudy
1:52 AM 78.1 °F - 64.9 °F 64% 29.94 in 10.0 mi WSW 5.8 mph - N/A   Mostly Cloudy
2:52 AM 79.0 °F - 61.0 °F 54% 29.94 in 10.0 mi WNW 5.8 mph - N/A   Clear
3:52 AM 75.9 °F - 61.0 °F 60% 29.94 in 10.0 mi NNW 3.5 mph - N/A   Clear
4:52 AM 73.9 °F - 61.0 °F 64% 29.95 in 10.0 mi NNW 4.6 mph - N/A   Clear
5:52 AM 73.0 °F - 62.1 °F 68% 29.96 in 10.0 mi North 3.5 mph - N/A   Clear
6:52 AM 73.9 °F - 64.0 °F 71% 29.98 in 10.0 mi Calm Calm - N/A   Clear
7:52 AM 78.1 °F - 64.9 °F 64% 30.00 in 10.0 mi NE 5.8 mph - N/A   Clear
8:52 AM 82.0 °F 84.5 °F 66.9 °F 60% 30.00 in 10.0 mi NE 6.9 mph - N/A   Clear
9:52 AM 87.1 °F 87.5 °F 62.1 °F 43% 29.99 in 10.0 mi NNE 10.4 mph - N/A   Clear
10:52 AM 91.0 °F 90.5 °F 60.1 °F 35% 29.99 in 10.0 mi Variable 6.9 mph - N/A   Clear
11:52 AM 93.0 °F 92.0 °F 57.9 °F 31% 29.99 in 10.0 mi NNE 11.5 mph 17.3 mph N/A   Clear
12:52 PM 93.9 °F 92.6 °F 57.0 °F 29% 29.98 in 10.0 mi North 15.0 mph 21.9 mph N/A   Clear
1:52 PM 96.1 °F 93.8 °F 54.0 °F 24% 29.97 in 10.0 mi NE 8.1 mph 18.4 mph N/A   Clear
2:52 PM 98.1 °F - 51.1 °F 20% 29.96 in 10.0 mi NNE 13.8 mph 20.7 mph N/A   Clear
3:52 PM 97.0 °F - 50.0 °F 20% 29.95 in 10.0 mi ENE 9.2 mph 24.2 mph N/A   Clear
4:52 PM 97.0 °F - 52.0 °F 22% 29.94 in 10.0 mi NNE 17.3 mph 23.0 mph N/A   Clear
5:52 PM 96.1 °F - 52.0 °F 22% 29.94 in 10.0 mi NNE 16.1 mph 21.9 mph N/A   Clear
6:52 PM 93.9 °F 91.4 °F 53.1 °F 25% 29.94 in 10.0 mi NNE 15.0 mph - N/A   Clear
7:52 PM 91.0 °F 88.7 °F 54.0 °F 28% 29.95 in 10.0 mi NNE 9.2 mph - N/A   Clear
8:52 PM 86.0 °F 85.0 °F 57.9 °F 38% 29.96 in 10.0 mi NE 10.4 mph - N/A   Clear
9:52 PM 82.0 °F 82.0 °F 57.9 °F 44% 29.98 in 10.0 mi NE 8.1 mph - N/A   Clear
10:52 PM 80.1 °F 80.9 °F 60.1 °F 50% 29.99 in 10.0 mi NE 10.4 mph - N/A   Clear
11:52 PM 78.1 °F - 62.1 °F 58% 30.00 in 10.0 mi ENE 11.5 mph - N/A   Clear